Time,TemperatureF,DewpointF,PressureIn,WindDirection,WindDirectionDegrees,WindSpeedMPH,WindSpeedGustMPH,Humidity,HourlyPrecipIn,Conditions,Clouds,dailyrainin,SoftwareType,DateUTC
2013-03-25 00:00:00,31.1,28.1,29.29,NE,45,2.7,2.7,88,0.00,,,0.00,WUHU216HW,2013-03-25 05:00:00,
2013-03-25 00:05:00,31.1,28.1,29.29,NE,45,1.3,2.7,88,0.00,,,0.00,WUHU216HW,2013-03-25 05:05:00,
2013-03-25 00:10:00,31.1,28.1,29.29,NE,45,2.2,2.2,88,0.00,,,0.00,WUHU216HW,2013-03-25 05:10:00,
2013-03-25 00:15:00,31.1,28.1,29.30,NE,45,1.8,2.2,88,0.00,,,0.00,WUHU216HW,2013-03-25 05:15:00,
2013-03-25 00:20:00,31.0,27.9,29.30,NNW,338,2.0,2.0,88,0.00,,,0.00,WUHU216HW,2013-03-25 05:20:00,
2013-03-25 00:25:00,31.0,27.9,29.30,WNW,293,2.5,2.9,88,0.00,,,0.00,WUHU216HW,2013-03-25 05:25:00,
2013-03-25 00:30:00,31.0,27.9,29.30,NE,45,1.6,2.9,88,0.00,,,0.00,WUHU216HW,2013-03-25 05:30:00,
2013-03-25 00:35:00,30.8,27.7,29.30,North,0,0.4,2.7,88,0.00,,,0.00,WUHU216HW,2013-03-25 05:35:00,
2013-03-25 00:40:00,30.8,27.7,29.30,ENE,68,1.1,1.8,88,0.00,,,0.00,WUHU216HW,2013-03-25 05:40:00,
2013-03-25 00:45:00,30.8,27.7,29.30,ENE,68,1.1,1.3,88,0.00,,,0.00,WUHU216HW,2013-03-25 05:45:00,
2013-03-25 00:50:00,30.8,27.7,29.30,ENE,68,1.1,1.3,88,0.00,,,0.00,WUHU216HW,2013-03-25 05:50:00,
2013-03-25 00:55:00,30.8,27.7,29.30,ENE,68,0.7,1.1,88,0.00,,,0.00,WUHU216HW,2013-03-25 05:55:00,
2013-03-25 01:00:00,30.8,27.7,29.30,ENE,68,0.4,1.6,88,0.00,,,0.00,WUHU216HW,2013-03-25 06:00:00,
2013-03-25 01:05:00,30.8,27.7,29.30,ENE,68,1.1,1.6,88,0.00,,,0.00,WUHU216HW,2013-03-25 06:05:00,
2013-03-25 01:10:00,30.8,27.7,29.31,ENE,68,0.2,1.6,88,0.00,,,0.00,WUHU216HW,2013-03-25 06:10:00,
2013-03-25 01:15:00,30.8,27.7,29.31,ENE,68,0.4,1.8,88,0.00,,,0.00,WUHU216HW,2013-03-25 06:15:00,
2013-03-25 01:20:00,30.8,27.7,29.31,ENE,68,1.1,1.8,88,0.00,,,0.00,WUHU216HW,2013-03-25 06:20:00,
2013-03-25 01:25:00,30.6,27.6,29.31,ENE,68,0.7,1.3,88,0.00,,,0.00,WUHU216HW,2013-03-25 06:25:00,
2013-03-25 01:30:00,30.6,27.6,29.31,ENE,68,1.1,1.3,88,0.00,,,0.00,WUHU216HW,2013-03-25 06:30:00,
2013-03-25 01:35:00,30.6,27.2,29.31,ENE,68,0.9,1.3,87,0.00,,,0.00,WUHU216HW,2013-03-25 06:35:00,
2013-03-25 01:40:00,30.4,27.4,29.31,ENE,68,0.7,1.1,88,0.00,,,0.00,WUHU216HW,2013-03-25 06:40:00,
2013-03-25 01:45:00,30.4,27.0,29.31,ENE,68,0.4,0.9,87,0.00,,,0.00,WUHU216HW,2013-03-25 06:45:00,
2013-03-25 01:50:00,30.4,27.4,29.31,North,0,0.0,0.7,88,0.00,,,0.00,WUHU216HW,2013-03-25 06:50:00,
2013-03-25 01:55:00,30.6,27.2,29.31,ENE,68,0.7,0.7,87,0.00,,,0.00,WUHU216HW,2013-03-25 06:55:00,
2013-03-25 02:00:00,30.6,27.2,29.31,ENE,68,1.1,1.1,87,0.00,,,0.00,WUHU216HW,2013-03-25 07:00:00,
2013-03-25 02:05:00,30.4,27.0,29.31,ENE,68,1.8,1.8,87,0.00,,,0.00,WUHU216HW,2013-03-25 07:05:00,
2013-03-25 02:10:00,30.2,26.6,29.31,ENE,68,1.1,1.8,86,0.00,,,0.00,WUHU216HW,2013-03-25 07:10:00,
2013-03-25 02:15:00,30.2,26.6,29.31,ENE,68,0.9,1.8,86,0.00,,,0.00,WUHU216HW,2013-03-25 07:15:00,
2013-03-25 02:20:00,30.1,26.6,29.32,ENE,68,0.9,1.1,87,0.00,,,0.00,WUHU216HW,2013-03-25 07:20:00,
2013-03-25 02:25:00,30.1,26.4,29.32,North,0,0.0,0.9,86,0.00,,,0.00,WUHU216HW,2013-03-25 07:25:00,
2013-03-25 02:30:00,29.9,26.2,29.32,ENE,68,0.9,0.9,86,0.00,,,0.00,WUHU216HW,2013-03-25 07:30:00,
2013-03-25 02:35:00,29.9,26.5,29.32,North,0,0.0,0.9,87,0.00,,,0.00,WUHU216HW,2013-03-25 07:35:00,
2013-03-25 02:40:00,29.9,26.2,29.32,ENE,68,1.6,1.6,86,0.00,,,0.00,WUHU216HW,2013-03-25 07:40:00,
2013-03-25 02:45:00,29.7,26.3,29.32,North,0,0.0,1.6,87,0.00,,,0.00,WUHU216HW,2013-03-25 07:45:00,
2013-03-25 02:50:00,29.9,26.2,29.32,ENE,68,0.9,1.6,86,0.00,,,0.00,WUHU216HW,2013-03-25 07:50:00,
2013-03-25 02:55:00,29.7,26.3,29.32,ENE,68,0.9,0.9,87,0.00,,,0.00,WUHU216HW,2013-03-25 07:55:00,
2013-03-25 03:00:00,29.7,26.3,29.32,ENE,68,0.4,0.9,87,0.00,,,0.00,WUHU216HW,2013-03-25 08:00:00,
2013-03-25 03:05:00,29.5,26.1,29.31,North,0,0.0,0.9,87,0.00,,,0.00,WUHU216HW,2013-03-25 08:05:00,
2013-03-25 03:10:00,29.7,26.0,29.31,North,0,0.0,0.4,86,0.00,,,0.00,WUHU216HW,2013-03-25 08:10:00,
2013-03-25 03:15:00,29.9,26.5,29.32,North,0,0.0,0.0,87,0.00,,,0.00,WUHU216HW,2013-03-25 08:15:00,
2013-03-25 03:20:00,29.9,26.2,29.31,North,0,0.0,0.0,86,0.00,,,0.00,WUHU216HW,2013-03-25 08:20:00,
2013-03-25 03:25:00,29.9,26.2,29.32,North,0,0.0,0.0,86,0.00,,,0.00,WUHU216HW,2013-03-25 08:25:00,
2013-03-25 03:30:00,29.7,26.0,29.32,North,0,0.0,0.0,86,0.00,,,0.00,WUHU216HW,2013-03-25 08:30:00,
2013-03-25 03:35:00,29.7,26.0,29.32,North,0,0.0,0.0,86,0.00,,,0.00,WUHU216HW,2013-03-25 08:35:00,
2013-03-25 03:40:00,29.7,26.0,29.32,North,0,0.0,0.0,86,0.00,,,0.00,WUHU216HW,2013-03-25 08:40:00,
2013-03-25 03:45:00,29.5,25.8,29.32,North,0,0.0,0.0,86,0.00,,,0.00,WUHU216HW,2013-03-25 08:45:00,
2013-03-25 03:50:00,29.5,25.8,29.32,North,0,0.0,0.0,86,0.00,,,0.00,WUHU216HW,2013-03-25 08:50:00,
2013-03-25 03:55:00,29.3,25.7,29.32,North,0,0.0,0.0,86,0.00,,,0.00,WUHU216HW,2013-03-25 08:55:00,
2013-03-25 04:00:00,29.3,25.9,29.32,North,0,0.0,0.0,87,0.00,,,0.00,WUHU216HW,2013-03-25 09:00:00,
2013-03-25 04:05:00,29.2,25.7,29.32,North,0,0.0,0.0,87,0.00,,,0.00,WUHU216HW,2013-03-25 09:05:00,
2013-03-25 04:10:00,29.2,25.7,29.32,North,0,0.0,0.0,87,0.00,,,0.00,WUHU216HW,2013-03-25 09:10:00,
2013-03-25 04:15:00,29.2,25.7,29.32,North,0,0.0,0.0,87,0.00,,,0.00,WUHU216HW,2013-03-25 09:15:00,
2013-03-25 04:20:00,29.2,25.5,29.32,North,0,0.0,0.0,86,0.00,,,0.00,WUHU216HW,2013-03-25 09:20:00,
2013-03-25 04:25:00,29.2,25.5,29.32,North,0,0.0,0.0,86,0.00,,,0.00,WUHU216HW,2013-03-25 09:25:00,
2013-03-25 04:30:00,29.2,25.5,29.32,North,0,0.0,0.0,86,0.00,,,0.00,WUHU216HW,2013-03-25 09:30:00,
2013-03-25 04:35:00,29.3,25.9,29.32,North,0,0.0,0.0,87,0.00,,,0.00,WUHU216HW,2013-03-25 09:35:00,
2013-03-25 04:40:00,29.3,25.7,29.32,North,0,0.0,0.0,86,0.00,,,0.00,WUHU216HW,2013-03-25 09:40:00,
2013-03-25 04:45:00,29.2,25.7,29.32,North,0,0.0,0.0,87,0.00,,,0.00,WUHU216HW,2013-03-25 09:45:00,
2013-03-25 04:50:00,29.2,25.7,29.32,North,0,0.0,0.0,87,0.00,,,0.00,WUHU216HW,2013-03-25 09:50:00,
2013-03-25 04:55:00,29.0,25.6,29.32,North,0,0.0,0.0,87,0.00,,,0.00,WUHU216HW,2013-03-25 09:55:00,
2013-03-25 05:00:00,29.2,25.5,29.32,North,0,0.0,0.0,86,0.00,,,0.00,WUHU216HW,2013-03-25 10:00:00,
2013-03-25 05:05:00,29.0,25.3,29.32,North,0,0.0,0.0,86,0.00,,,0.00,WUHU216HW,2013-03-25 10:05:00,
2013-03-25 05:10:00,29.0,25.3,29.32,North,0,0.0,0.0,86,0.00,,,0.00,WUHU216HW,2013-03-25 10:10:00,
2013-03-25 05:15:00,29.0,25.3,29.32,North,0,0.0,0.0,86,0.00,,,0.00,WUHU216HW,2013-03-25 10:15:00,
2013-03-25 05:20:00,29.0,25.3,29.33,North,0,0.0,0.0,86,0.00,,,0.00,WUHU216HW,2013-03-25 10:20:00,
2013-03-25 05:25:00,29.0,25.0,29.33,North,0,0.0,0.0,85,0.00,,,0.00,WUHU216HW,2013-03-25 10:25:00,
2013-03-25 05:30:00,29.0,25.0,29.33,North,0,0.0,0.0,85,0.00,,,0.00,WUHU216HW,2013-03-25 10:30:00,
2013-03-25 05:35:00,29.0,25.0,29.33,North,0,0.0,0.0,85,0.00,,,0.00,WUHU216HW,2013-03-25 10:35:00,
2013-03-25 05:40:00,28.8,24.8,29.33,ENE,68,1.1,1.6,85,0.00,,,0.00,WUHU216HW,2013-03-25 10:40:00,
2013-03-25 05:45:00,28.8,24.8,29.33,ENE,68,1.8,1.8,85,0.00,,,0.00,WUHU216HW,2013-03-25 10:45:00,
2013-03-25 05:50:00,29.0,24.8,29.33,ENE,68,0.9,1.8,84,0.00,,,0.00,WUHU216HW,2013-03-25 10:50:00,
2013-03-25 05:55:00,29.2,24.7,29.34,ENE,68,0.9,2.5,83,0.00,,,0.00,WUHU216HW,2013-03-25 10:55:00,
2013-03-25 06:00:00,29.2,24.3,29.34,ENE,68,1.3,2.5,82,0.00,,,0.00,WUHU216HW,2013-03-25 11:00:00,
2013-03-25 06:05:00,29.2,24.0,29.34,ENE,68,1.8,2.0,81,0.00,,,0.00,WUHU216HW,2013-03-25 11:05:00,
2013-03-25 06:10:00,29.3,24.5,29.34,ENE,68,0.4,1.8,82,0.00,,,0.00,WUHU216HW,2013-03-25 11:10:00,
2013-03-25 06:15:00,29.5,24.4,29.34,North,0,0.0,1.8,81,0.00,,,0.00,WUHU216HW,2013-03-25 11:15:00,
2013-03-25 06:20:00,29.7,24.3,29.35,North,0,0.0,0.4,80,0.00,,,0.00,WUHU216HW,2013-03-25 11:20:00,
2013-03-25 06:25:00,29.7,23.9,29.35,North,0,0.0,0.0,79,0.00,,,0.00,WUHU216HW,2013-03-25 11:25:00,
2013-03-25 06:30:00,29.7,23.9,29.35,North,0,0.0,0.0,79,0.00,,,0.00,WUHU216HW,2013-03-25 11:30:00,
2013-03-25 06:35:00,29.5,23.8,29.35,North,0,0.0,0.0,79,0.00,,,0.00,WUHU216HW,2013-03-25 11:35:00,
2013-03-25 06:40:00,29.5,23.8,29.35,North,0,0.0,0.0,79,0.00,,,0.00,WUHU216HW,2013-03-25 11:40:00,
2013-03-25 06:45:00,29.5,23.8,29.35,North,0,0.0,0.0,79,0.00,,,0.00,WUHU216HW,2013-03-25 11:45:00,
2013-03-25 06:50:00,29.3,23.7,29.35,North,0,0.0,0.0,79,0.00,,,0.00,WUHU216HW,2013-03-25 11:50:00,
2013-03-25 06:55:00,29.3,23.7,29.36,North,0,0.0,0.0,79,0.00,,,0.00,WUHU216HW,2013-03-25 11:55:00,
2013-03-25 07:00:00,29.3,23.7,29.36,North,0,0.0,0.0,79,0.00,,,0.00,WUHU216HW,2013-03-25 12:00:00,
2013-03-25 07:05:00,29.3,23.7,29.36,North,0,0.0,0.0,79,0.00,,,0.00,WUHU216HW,2013-03-25 12:05:00,
2013-03-25 07:10:00,29.5,23.8,29.36,North,0,0.0,0.0,79,0.00,,,0.00,WUHU216HW,2013-03-25 12:10:00,
2013-03-25 07:15:00,29.5,23.8,29.36,North,0,0.0,0.0,79,0.00,,,0.00,WUHU216HW,2013-03-25 12:15:00,
2013-03-25 07:20:00,29.5,23.5,29.37,North,0,0.0,0.0,78,0.00,,,0.00,WUHU216HW,2013-03-25 12:20:00,
2013-03-25 07:25:00,29.5,23.5,29.37,North,0,0.0,0.0,78,0.00,,,0.00,WUHU216HW,2013-03-25 12:25:00,